Temperature
15 15 15 15 15 15 15 14 14 14 14 14 14 14 14 14 14 13 13 13 13 13 13 13 13 13 13 13 12 12 12 12 12 12 11 11 11 11 11 11 11 11 11
15 15 15 15 14 14 14 14 14 14 14 14 14 14 13 13 13 13 13 13 13 13 13 13 13 12 12 12 12 12 12 12 12 12 11 11 11 11 11 11 11 11 10
15 15 15 14 14 14 14 14 14 14 14 14 13 13 13 13 13 13 13 13 13 13 12 12 12 12 12 12 12 12 12 12 12 11 11 11 11 11 11 10 10 10 10
14 14 14 14 14 14 14 14 14 13 13 13 13 13 13 13 13 13 12 12 12 12 12 12 12 12 12 12 12 12 12 11 11 11 11 11 11 10 10 10 10 10 10
14 14 14 14 14 14 13 13 13 13 13 13 13 13 12 12 12 12 12 12 12 12 12 12 12 12 11 11 11 11 11 11 11 11 10 10 10 10 10 10 10 10 10
14 14 14 13 13 13 13 13 13 13 13 13 13 12 12 12 12 12 12 12 12 12 12 12 11 11 11 11 11 11 11 11 11 10 10 10 10 10 10 10 10 10 10
13 13 13 13 13 13 13 13 13 12 12 12 12 12 12 12 12 11 11 11 11 11 11 11 11 11 11 11 11 11 10 10 10 10 10 10 10 10 10 10 10 10 10
13 13 13 13 13 13 13 12 12 12 12 12 12 12 12 12 11 11 11 11 11 11 11 11 11 11 11 11 10 10 10 10 10 10 10 10 10 9 9 9 9 9 9
13 13 13 12 12 12 12 12 12 12 12 12 12 11 11 11 11 11 11 11 11 11 11 11 11 10 10 10 10 10 10 10 10 10 9 9 9 9 9 9 9 8 9
12 12 12 12 12 12 12 12 12 11 11 11 11 11 11 11 11 11 11 11 10 10 10 10 10 10 10 10 10 10 9 9 9 9 9 9 9 9 8 8 8 8 8
12 12 12 12 12 12 12 11 11 11 11 11 11 11 11 11 11 11 10 10 10 10 10 10 10 10 10 9 9 9 9 9 9 9 9 9 8 8 8 8 8 8 8
12 12 12 11 11 11 11 11 11 11 11 11 11 11 10 10 10 10 10 10 10 10 10 10 10 10 9 9 9 9 9 9 8 8 8 8 8 8 8 8 8 8 7
11 11 11 11 11 11 11 11 11 11 11 10 10 10 10 10 10 10 10 10 10 10 10 10 9 9 9 9 9 8 8 8 8 8 8 8 8 8 7 7 7 7 7
11 11 11 11 11 11 11 10 10 10 10 10 10 10 10 10 10 10 10 10 9 9 9 9 9 9 9 8 8 8 8 8 8 8 8 8 7 7 7 7 7 7 7
11 11 11 10 10 10 10 10 10 10 10 10 10 10 10 10 10 10 9 9 9 9 9 9 9 8 8 8 8 8 8 7 7 7 7 7 7 7 7 7 7 7 7
11 11 11 10 10 10 10 10 10 10 10 9 9 9 9 9 9 9 9 9 9 9 9 8 8 8 8 8 8 7 7 7 7 7 7 7 6 6 6 6 6 6 6
10 10 10 10 10 10 10 9 9 9 9 9 9 9 9 9 9 9 9 9 8 8 8 8 8 8 8 8 7 7 7 7 7 7 6 6 6 6 6 6 6 6 6
10 10 10 10 10 9 9 9 9 9 9 9 9 9 9 9 8 8 8 8 8 8 8 8 8 8 7 7 7 7 7 7 7 7 6 6 6 6 6 6 6 6 6
10 9 9 9 9 9 9 9 9 9 9 9 8 8 8 8 8 8 8 8 8 8 7 7 7 7 7 7 7 7 7 7 7 7 6 6 6 6 5 5 5 5 5
9 9 9 9 9 9 9 8 8 8 8 8 8 8 8 8 8 8 7 7 7 7 7 7 7 7 7 7 7 7 7 6 6 6 6 6 6 6 5 5 5 5 5
9 9 8 8 8 8 8 8 8 8 8 8 8 8 7 7 7 7 7 7 7 7 7 7 7 7 7 7 7 7 6 6 6 6 6 6 6 5 5 5 5 5 5
8 8 8 8 8 8 8 8 8 7 7 7 7 7 7 7 7 7 7 7 7 7 7 7 7 7 7 6 6 6 6 6 6 6 6 5 5 5 5 5 5 5 5
8 8 8 7 7 7 7 7 7 7 7 7 7 6 6 6 6 6 6 6 6 6 6 6 6 6 6 6 6 6 6 6 6 6 5 5 5 5 5 5 5 4 4
7 7 7 7 7 7 7 6 6 6 6 6 6 6 6 6 6 6 6 6 6 6 6 6 6 6 6 6 6 6 6 5 5 5 5 5 5 5 4 4 4 4 4
7 7 7 6 6 6 6 6 6 6 6 6 6 5 5 5 5 5 5 5 5 5 5 5 5 5 5 5 5 5 5 5 5 5 5 4 4 4 4 4 4 4 4
7 6 6 6 6 6 6 6 5 5 5 5 5 5 5 5 5 5 5 5 5 5 5 5 5 5 5 5 5 5 5 5 5 5 4 4 4 4 4 4 4 3 3
Wind_Speed
3 3 3 3 4 4 4 4 3 2 3 3 3 3 3 3 3 3 2 2 2 1 1 2 1 1 1 1 1 1 1 2 2 2 1 1 2 2 2 3 2 2 2
3 3 3 3 3 3 3 3 3 3 3 3 3 3 3 3 3 3 3 3 3 2 2 2 1 1 1 1 1 2 2 2 3 2 1 1 1 2 2 2 2 2 2
2 2 3 3 3 3 3 3 3 3 3 3 3 3 3 3 3 3 3 3 3 3 2 3 2 2 1 1 2 2 1 1 2 3 1 1 0 1 1 0 1 0 2
2 2 2 3 4 4 3 3 3 3 3 3 3 3 3 3 3 3 3 3 2 2 2 2 3 3 3 3 2 2 2 2 2 2 1 1 0 0 1 1 0 1 1
1 2 2 2 2 2 3 2 2 3 3 3 2 2 2 2 3 3 3 3 3 2 1 2 2 2 3 3 2 3 3 3 2 2 2 1 1 1 2 2 2 1 1
1 2 2 2 2 2 2 3 3 2 2 3 2 3 3 3 3 4 3 3 3 3 2 2 2 2 2 2 3 4 5 4 3 3 2 2 3 3 2 2 2 1 2
1 2 2 2 2 2 2 3 3 3 2 2 2 2 3 4 4 4 5 3 3 3 3 2 1 1 1 1 1 2 3 4 5 5 4 4 4 4 4 3 3 3 3
2 2 2 2 3 3 2 3 3 3 3 3 2 2 3 3 4 5 5 3 3 3 3 3 3 2 2 3 2 1 1 1 3 3 4 5 5 5 6 5 4 2 1
2 3 3 3 3 3 3 4 3 3 3 3 2 3 3 3 4 5 4 3 2 3 3 3 3 2 3 3 3 3 1 2 2 3 4 4 5 6 6 3 3 2 2
3 3 3 3 3 4 4 4 3 3 4 4 3 3 4 4 4 5 4 3 3 2 2 2 3 4 4 4 3 4 4 3 2 1 1 2 2 4 6 6 5 3 2
3 2 3 3 4 4 3 3 3 4 3 3 3 3 3 4 4 5 5 3 4 3 2 2 3 5 5 5 4 4 5 3 2 2 1 1 1 1 3 5 5 4 4
2 2 3 3 3 2 2 3 3 4 3 3 2 2 3 3 4 5 6 5 4 4 4 3 3 5 5 5 4 4 4 3 1 1 1 2 2 2 3 3 5 6 6
1 2 3 2 2 2 3 3 3 3 3 3 3 3 3 2 3 4 5 5 5 3 3 4 4 5 4 4 5 4 3 2 2 2 3 4 4 3 2 2 3 3 3
2 2 2 2 2 2 2 3 3 3 4 4 4 4 3 3 3 2 3 3 3 2 2 2 2 2 2 2 2 2 2 3 3 4 4 3 2 2 2 2 2 2 2
2 2 2 2 3 2 2 3 4 4 5 5 5 5 5 5 5 6 4 4 4 4 2 1 0 0 1 1 2 2 2 2 3 3 3 3 3 3 3 2 2 2 2
2 2 2 2 2 2 2 2 3 3 4 5 5 5 5 6 5 5 6 6 5 5 3 2 2 3 3 3 3 3 3 4 4 4 4 4 4 4 3 2 2 3 4
2 3 2 2 2 2 2 2 2 2 2 3 5 6 5 5 5 5 6 6 5 5 3 3 4 4 4 4 4 4 4 4 4 4 4 4 4 4 3 4 4 4 4
2 2 2 2 2 2 3 3 3 2 2 2 3 4 5 5 5 5 4 3 3 4 4 4 5 4 4 4 4 4 4 3 4 4 4 4 4 4 4 4 4 5 5
2 2 2 2 2 2 2 2 2 3 2 2 2 2 2 2 2 3 3 3 5 5 5 5 5 4 4 5 5 4 4 4 4 5 5 5 5 5 5 5 5 6 6
2 3 2 2 2 2 2 2 2 3 3 2 3 3 1 1 1 2 3 3 4 4 5 5 5 5 5 5 5 4 4 4 4 4 5 5 5 5 6 6 6 6 6
2 2 3 1 2 3 2 3 3 3 3 3 3 3 3 3 4 4 4 4 5 5 5 5 4 4 4 4 4 5 5 5 5 5 4 5 5 5 5 6 6 6 5
2 2 2 2 2 2 2 2 2 3 3 3 3 2 4 3 4 4 4 5 5 5 4 4 4 4 4 4 4 4 5 5 4 4 4 4 4 5 5 5 5 5 5
2 2 2 2 2 3 2 1 2 2 2 3 3 2 3 3 3 4 4 4 4 4 3 3 4 4 4 4 5 5 5 5 5 5 5 4 4 4 4 4 5 5 6
2 2 2 2 2 2 2 2 2 2 2 2 2 2 2 3 3 4 4 4 4 3 3 3 4 5 6 5 4 5 6 6 5 6 6 5 5 4 4 4 4 5 5
1 2 2 2 2 2 2 2 2 2 2 2 2 2 2 2 3 3 3 3 3 3 4 3 3 4 5 6 5 5 6 8 7 5 5 5 5 5 5 5 4 4 4
1 2 2 2 2 2 2 2 3 3 2 2 2 2 2 2 2 3 2 3 3 3 3 3 3 4 5 5 5 6 6 6 6 7 5 5 5 5 4 4 5 5 5
Wind_Direction
182 184 182 190 190 172 171 182 185 185 182 181 177 166 160 161 158 157 169 146 135 144 151 152 169 156 142 163 157 145 149 148 180 247 235 191 166 171 156 158 154 143 145
188 184 188 186 174 170 187 195 186 183 186 184 176 167 165 163 161 162 175 164 157 163 183 164 178 159 150 182 173 177 180 166 164 197 224 192 202 190 175 172 179 185 188
187 181 168 171 176 184 191 191 192 186 181 178 167 178 182 174 174 171 180 174 177 185 180 171 183 163 180 196 186 189 188 168 151 164 193 189 150 164 127 167 173 228 221
189 181 183 189 191 188 183 183 190 189 178 175 179 185 180 174 175 175 180 181 181 185 187 189 192 185 198 198 194 187 167 147 135 143 152 153 150 158 135 162 275 308 273
177 200 216 204 188 183 179 175 174 181 183 174 166 167 172 175 188 181 186 178 175 184 197 212 210 194 192 191 183 174 160 152 145 150 161 153 193 185 209 197 196 246 293
180 226 213 186 182 193 202 177 165 173 179 160 169 176 183 202 199 188 180 183 177 177 189 216 236 207 191 180 171 166 164 165 173 175 184 194 216 209 187 192 180 188 272
218 233 210 194 196 208 203 178 179 185 179 175 186 186 196 213 204 190 181 175 177 187 197 198 211 222 172 169 159 155 177 184 180 182 190 209 208 205 185 192 200 202 223
215 240 231 212 211 213 186 183 196 188 182 183 192 196 199 219 211 196 182 170 171 194 203 196 188 206 204 172 155 155 194 225 205 193 203 213 212 201 195 195 196 199 264
225 232 233 221 210 207 200 205 203 185 184 188 186 190 199 224 208 191 169 165 180 207 218 202 192 202 209 160 152 169 204 268 232 216 216 215 216 204 184 157 159 166 254
232 231 231 221 212 213 215 214 202 186 193 192 196 201 206 217 210 197 175 168 186 216 225 217 207 205 203 183 181 186 208 239 244 258 257 258 217 204 197 187 186 188 201
232 233 235 232 228 224 216 209 194 187 184 195 210 220 218 215 211 205 195 187 192 202 217 229 227 211 204 201 203 210 220 215 205 206 221 257 284 232 213 204 195 189 198
220 229 243 246 236 228 202 204 194 184 188 204 216 240 241 230 219 216 210 209 203 201 219 226 224 215 210 206 213 225 214 185 179 188 214 233 240 245 242 221 215 213 215
194 228 239 248 238 210 194 195 196 194 201 212 205 228 245 241 234 227 214 211 208 213 222 223 222 215 212 220 226 221 206 192 190 212 228 236 235 238 237 234 228 232 249
206 243 241 236 246 232 211 204 204 208 212 215 214 220 235 237 232 220 212 212 213 216 225 230 224 208 205 228 237 230 220 208 205 219 233 238 234 230 238 230 229 227 251
219 243 243 227 219 224 224 221 217 222 218 215 218 211 210 229 237 218 199 206 205 202 172 139 199 213 223 249 262 249 235 221 223 225 224 229 231 231 243 236 222 217 222
242 248 240 229 212 206 220 267 263 240 244 238 232 220 225 232 227 217 212 204 194 179 159 199 219 222 223 228 233 245 243 235 233 228 225 226 228 230 237 242 225 220 232
242 246 238 218 208 208 210 216 258 305 306 265 248 236 231 227 221 221 213 201 192 174 193 215 222 225 231 231 230 233 240 238 229 225 229 232 232 233 233 236 232 231 239
245 241 227 206 205 212 222 227 224 228 264 288 277 257 246 235 225 223 207 177 201 205 218 222 227 229 232 232 234 238 242 237 227 226 229 232 230 231 235 237 233 230 237
255 247 229 217 211 210 221 227 226 225 232 252 274 285 267 243 230 225 185 196 208 218 226 231 232 230 234 234 234 233 232 232 230 224 225 230 229 227 232 236 239 240 237
264 259 242 221 216 219 220 224 227 229 236 237 242 246 226 181 222 231 225 225 222 228 229 232 234 235 236 235 233 230 230 231 231 233 229 229 229 225 229 234 237 239 237
266 262 262 253 232 226 224 230 228 228 232 239 246 243 215 212 225 231 235 236 233 234 234 235 237 237 238 236 232 229 229 234 232 231 235 233 229 233 234 233 237 238 240
243 242 239 234 237 233 233 231 230 233 236 241 252 253 232 228 232 237 239 244 242 240 237 231 233 233 230 229 229 229 232 236 235 234 235 237 235 233 235 237 236 238 239
249 245 246 248 241 247 247 244 242 245 250 247 237 233 231 240 244 243 245 246 248 249 243 234 234 240 239 233 228 223 226 232 232 225 227 230 228 235 240 241 244 248 244
249 239 237 248 246 233 227 230 245 249 250 259 261 253 247 248 256 259 257 254 251 252 247 240 238 241 242 240 241 239 241 242 235 225 214 218 223 228 234 245 251 254 251
243 242 240 240 240 243 245 243 246 250 252 255 259 268 274 268 270 275 271 269 256 254 253 248 247 248 249 249 250 252 250 243 238 228 211 207 219 223 228 236 242 254 261
249 249 249 243 238 240 239 240 242 240 244 253 256 260 265 273 276 280 282 285 278 271 269 262 258 256 258 257 257 258 258 252 245 235 218 207 217 227 227 233 239 244 255
Height
1524 1525 1525 1525 1526 1527 1527 1528 1528 1528 1528 1528 1528 1528 1528 1528 1529 1529 1530 1531 1531 1532 1532 1533 1533 1533 1533 1533 1534 1534 1534 1534 1534 1534 1534 1534 1534 1534 1534 1534 1533 1533 1533
1522 1523 1523 1524 1524 1525 1525 1526 1526 1526 1526 1526 1526 1526 1526 1526 1527 1527 1528 1528 1529 1530 1530 1531 1531 1531 1531 1531 1531 1531 1532 1532 1532 1531 1532 1532 1533 1533 1533 1532 1532 1532 1532
1520 1520 1521 1522 1522 1523 1523 1523 1524 1524 1524 1524 1524 1524 1524 1524 1525 1525 1526 1526 1527 1527 1528 1528 1528 1529 1529 1529 1529 1529 1529 1529 1530 1530 1530 1530 1530 1531 1531 1531 1530 1530 1530
1518 1518 1518 1519 1520 1520 1521 1521 1521 1522 1521 1521 1521 1522 1522 1522 1523 1523 1524 1524 1525 1525 1526 1526 1526 1526 1527 1526 1526 1526 1527 1527 1527 1527 1528 1528 1528 1528 1529 1529 1528 1529 1528
1516 1516 1516 1517 1518 1518 1518 1519 1519 1519 1519 1519 1519 1519 1520 1520 1520 1521 1521 1522 1522 1523 1523 1524 1524 1524 1525 1525 1525 1524 1525 1525 1525 1525 1525 1525 1526 1526 1526 1526 1526 1526 1526
1513 1514 1514 1514 1515 1515 1516 1516 1516 1517 1517 1517 1517 1517 1517 1518 1518 1519 1519 1519 1520 1520 1521 1521 1522 1522 1522 1523 1523 1523 1523 1523 1523 1523 1523 1523 1523 1523 1524 1524 1524 1524 1524
1510 1510 1511 1511 1512 1512 1513 1513 1513 1514 1514 1514 1515 1515 1515 1515 1516 1516 1517 1517 1517 1518 1518 1518 1519 1519 1520 1520 1520 1520 1520 1520 1521 1521 1520 1520 1521 1521 1521 1521 1521 1521 1521
1507 1507 1508 1508 1509 1509 1510 1510 1510 1511 1511 1511 1512 1512 1513 1513 1513 1514 1515 1515 1515 1515 1516 1516 1516 1517 1517 1517 1517 1517 1517 1517 1517 1517 1517 1518 1518 1518 1519 1519 1519 1519 1519
1504 1504 1505 1505 1505 1506 1506 1507 1507 1508 1508 1509 1509 1510 1510 1510 1511 1511 1512 1512 1512 1513 1513 1514 1514 1514 1514 1514 1514 1514 1514 1514 1514 1514 1515 1515 1515 1515 1516 1516 1516 1516 1515
1502 1502 1502 1502 1502 1502 1503 1503 1504 1504 1505 1506 1506 1507 1507 1507 1508 1509 1510 1509 1509 1510 1510 1511 1511 1511 1511 1511 1511 1511 1510 1510 1511 1511 1511 1511 1512 1512 1512 1512 1513 1513 1512
1499 1499 1499 1499 1499 1499 1500 1500 1501 1501 1502 1502 1503 1504 1504 1505 1506 1506 1507 1507 1507 1507 1507 1507 1508 1508 1508 1508 1508 1508 1508 1508 1508 1508 1508 1508 1508 1508 1508 1509 1509 1509 1509
1496 1496 1496 1496 1496 1496 1496 1497 1497 1498 1498 1499 1499 1500 1501 1502 1502 1503 1504 1504 1504 1504 1504 1504 1504 1505 1504 1504 1504 1504 1505 1505 1504 1504 1504 1504 1504 1504 1505 1505 1505 1506 1506
1493 1493 1493 1493 1493 1493 1493 1493 1494 1494 1495 1495 1496 1496 1497 1498 1499 1500 1500 1501 1501 1501 1501 1501 1501 1501 1501 1501 1500 1501 1501 1501 1500 1500 1500 1500 1501 1501 1501 1501 1501 1502 1502
1490 1490 1490 1489 1490 1490 1490 1490 1490 1491 1491 1492 1492 1492 1493 1494 1495 1495 1496 1496 1497 1497 1497 1497 1497 1497 1497 1497 1496 1496 1497 1497 1497 1496 1496 1497 1497 1497 1497 1497 1497 1497 1497
1487 1487 1487 1486 1486 1486 1486 1486 1487 1487 1488 1488 1488 1489 1489 1489 1490 1492 1492 1492 1492 1493 1493 1493 1492 1492 1492 1492 1492 1492 1493 1492 1492 1492 1493 1492 1493 1493 1493 1494 1494 1494 1493
1484 1484 1484 1483 1483 1483 1483 1483 1483 1484 1484 1485 1485 1485 1485 1486 1487 1487 1488 1488 1489 1489 1489 1488 1488 1488 1488 1488 1488 1488 1488 1488 1488 1488 1488 1488 1488 1489 1489 1489 1489 1489 1489
1481 1481 1480 1480 1480 1480 1480 1480 1479 1480 1480 1481 1481 1481 1481 1481 1482 1482 1483 1484 1484 1484 1484 1483 1484 1484 1484 1484 1484 1484 1484 1484 1484 1484 1484 1484 1484 1484 1484 1484 1485 1484 1484
1478 1477 1477 1477 1477 1477 1477 1477 1476 1476 1475 1475 1476 1477 1477 1477 1478 1478 1478 1479 1479 1479 1479 1479 1479 1479 1479 1480 1480 1480 1480 1480 1479 1479 1479 1479 1479 1479 1480 1480 1480 1480 1479
1475 1474 1474 1473 1473 1473 1473 1473 1473 1472 1472 1472 1472 1472 1473 1473 1473 1474 1473 1473 1473 1473 1474 1474 1474 1475 1475 1475 1475 1475 1475 1475 1475 1474 1474 1474 1474 1474 1474 1474 1475 1474 1474
1471 1471 1470 1470 1470 1469 1469 1469 1469 1468 1468 1467 1467 1468 1468 1468 1467 1467 1468 1468 1468 1468 1469 1469 1469 1470 1470 1470 1470 1470 1470 1470 1469 1469 1469 1469 1469 1469 1469 1469 1469 1469 1468
1468 1467 1467 1466 1466 1466 1465 1465 1465 1464 1464 1463 1463 1463 1464 1463 1463 1462 1463 1463 1463 1463 1463 1464 1464 1464 1465 1465 1465 1465 1464 1464 1464 1464 1464 1463 1463 1463 1463 1463 1463 1463 1462
1465 1464 1463 1463 1462 1462 1462 1461 1461 1460 1459 1459 1459 1459 1459 1459 1458 1458 1458 1458 1458 1458 1458 1458 1459 1459 1459 1459 1459 1459 1458 1458 1458 1458 1458 1458 1457 1457 1457 1457 1457 1457 1456
1461 1460 1460 1459 1459 1458 1458 1457 1457 1456 1456 1455 1455 1454 1454 1454 1453 1453 1453 1452 1452 1452 1452 1453 1453 1453 1453 1453 1453 1453 1453 1453 1453 1453 1452 1452 1452 1451 1451 1451 1451 1451 1450
1458 1457 1456 1456 1455 1455 1454 1453 1453 1452 1452 1451 1450 1450 1449 1449 1448 1448 1448 1447 1447 1447 1447 1447 1447 1447 1448 1448 1448 1448 1447 1447 1447 1447 1447 1447 1446 1446 1445 1445 1445 1445 1444
1454 1453 1453 1452 1451 1451 1450 1450 1449 1448 1447 1447 1446 1445 1445 1444 1443 1443 1443 1442 1442 1441 1441 1441 1441 1442 1442 1442 1442 1442 1442 1442 1442 1442 1441 1441 1440 1440 1440 1439 1439 1439 1438
1450 1449 1449 1448 1448 1447 1447 1446 1445 1444 1443 1442 1442 1441 1440 1440 1439 1439 1438 1437 1437 1436 1436 1436 1436 1436 1436 1436 1436 1436 1436 1436 1436 1436 1436 1435 1435 1435 1434 1434 1433 1433 1432